This is the latest recevied weather packets stored in our database for station/object KC3UTO. If no packets are shown the sender has not sent any weather packets the latest 10 day(s).
| Time | Temp. | Humidity | Pressure | Rain* | Wind** | Luminosity | Snow |
|---|---|---|---|---|---|---|---|
| 1777648651 | 13.33° C | 44% | 1013.3 hPa | 0 mm | - | 358 W/m² | - |
| 1777648347 | 13.33° C | 48% | 1013 hPa | 0 mm | - | 839 W/m² | - |
| 1777648044 | 13.89° C | 48% | 1013.2 hPa | 0 mm | - | 732 W/m² | - |
| 1777647740 | 14.44° C | 42% | 1013.1 hPa | 0 mm | - | 829 W/m² | - |
| 1777647436 | 13.89° C | 46% | 1013.3 hPa | 0 mm | - | 825 W/m² | - |
| 1777647134 | 13.33° C | 47% | 1013.2 hPa | 0 mm | - | 817 W/m² | - |
| 1777646222 | 12.78° C | 50% | 1013.2 hPa | 0 mm | - | 765 W/m² | - |
| 1777645920 | 13.33° C | 51% | 1013.1 hPa | 0 mm | - | 752 W/m² | - |
| 1777645616 | 12.78° C | 53% | 1013.1 hPa | 0 mm | - | 732 W/m² | - |
| 1777645312 | 12.78° C | 56% | 1013.2 hPa | 0 mm | - | 728 W/m² | - |
| 1777645008 | 13.33° C | 54% | 1013.4 hPa | 0 mm | - | 710 W/m² | - |
| 1777644706 | 12.78° C | 55% | 1013.4 hPa | 0 mm | - | 369 W/m² | - |
| 1777644402 | 12.22° C | 55% | 1013.6 hPa | 0 mm | - | 662 W/m² | - |
| 1777644099 | 11.67° C | 55% | 1013.5 hPa | 0 mm | - | 663 W/m² | - |
| 1777643796 | 12.22° C | 55% | 1013.5 hPa | 0 mm | - | 648 W/m² | - |
| 1777643493 | 12.22° C | 56% | 1013.4 hPa | 0 mm | - | 632 W/m² | - |
| 1777642886 | 12.22° C | 57% | 1013.3 hPa | 0 mm | - | 597 W/m² | - |
| 1777642583 | 11.67° C | 57% | 1013.4 hPa | 0 mm | - | 577 W/m² | - |
| 1777642279 | 11.67° C | 57% | 1013.3 hPa | 0 mm | - | 559 W/m² | - |
| 1777641977 | 11.67° C | 56% | 1013.5 hPa | 0 mm | - | 543 W/m² | - |
| 1777641672 | 11.67° C | 59% | 1013.4 hPa | 0 mm | - | 526 W/m² | - |
| 1777641368 | 11.67° C | 57% | 1013.5 hPa | 0 mm | - | 507 W/m² | - |
| 1777641063 | 11.11° C | 58% | 1013.4 hPa | 0 mm | - | 488 W/m² | - |
| 1777640759 | 11.11° C | 58% | 1013.6 hPa | 0 mm | - | 470 W/m² | - |
| 1777640153 | 11.11° C | 59% | 1013.6 hPa | 0 mm | - | 428 W/m² | - |
* Rain latest hour (hover to see other rain measurements)
** Current wind speed in m/s (hover to see current wind gust speed)